KG5MMT-12 Weather Reports


time (UTC)temp
F
wind
direction
speed
knots
gust
knots
rain 1hr
in
rain 24hr
in
rain mn
in
humidity
%
barometer
mb
20260505230849 55 306 0.9 6.1 0.00 0.00 0.00 52
20260505230349 55 243 2.6 10.4 0.00 0.00 0.00 51
20260505225849 55 230 0.9 7.0 0.00 0.00 0.00 52
20260505225349 56 47 1.7 7.8 0.00 0.00 0.00 53
20260505224849 56 21 4.3 7.8 0.00 0.00 0.00 50
20260505224349 57 268 0.9 11.3 0.00 0.00 0.00 46
20260505223849 57 258 3.5 7.8 0.00 0.00 0.00 46
20260505223349 57 282 2.6 9.6 0.00 0.00 0.00 45
20260505222849 57 255 3.5 7.0 0.00 0.00 0.00 44
20260505222349 58 274 0.9 6.1 0.00 0.00 0.00 45
20260505221849 58 295 1.7 10.4 0.00 0.00 0.00 46
20260505221349 58 2 3.5 8.7 0.00 0.00 0.00 46
20260505220849 57 185 0.9 7.8 0.00 0.00 0.00 46
20260505220349 57 2 1.7 7.0 0.00 0.00 0.00 47
20260505215849 57 305 0.9 7.0 0.00 0.00 0.00 47
20260505215349 57 295 3.5 12.2 0.00 0.00 0.00 46
20260505214849 57 78 4.3 11.3 0.00 0.00 0.00 45
20260505214349 58 262 5.2 8.7 0.00 0.00 0.00 44
20260505213849 59 286 4.3 15.6 0.00 0.00 0.00 42
20260505213349 59 258 4.3 10.4 0.00 0.00 0.00 44
20260505212849 59 210 0.9 10.4 0.00 0.00 0.00 44
20260505212349 59 45 0.0 7.8 0.00 0.00 0.00 45
20260505211849 58 310 2.6 7.8 0.00 0.00 0.00 46
20260505211349 59 254 7.8 9.6 0.00 0.00 0.00 45
20260505210849 58 30 4.3 13.0 0.00 0.00 0.00 44
20260505210349 59 286 4.3 13.0 0.00 0.00 0.00 45
20260505205849 59 222 2.6 13.0 0.00 0.00 0.00 46
20260505205349 59 320 5.2 12.2 0.00 0.00 0.00 45
20260505204849 60 219 1.7 9.6 0.00 0.00 0.00 43
20260505204349 59 336 8.7 9.6 0.00 0.00 0.00 45
20260505203849 58 21 3.5 13.9 0.00 0.00 0.00 46
20260505203349 58 255 11.3 11.3 0.00 0.00 0.00 45
20260505202849 59 5 4.3 8.7 0.00 0.00 0.00 45
20260505202349 58 118 6.1 9.6 0.00 0.00 0.00 46
20260505201849 58 358 2.6 6.1 0.00 0.00 0.00 45
20260505201349 58 16 0.9 12.2 0.00 0.00 0.00 45
20260505200849 59 67 6.1 7.8 0.00 0.00 0.00 44
20260505200349 58 88 3.5 11.3 0.00 0.00 0.00 44
20260505195849 59 255 2.6 6.1 0.00 0.00 0.00 44
20260505195349 58 78 3.5 7.0 0.00 0.00 0.00 44
20260505194849 58 313 0.0 2.6 0.00 0.00 0.00 46
20260505194349 57 239 0.0 6.1 0.00 0.00 0.00 46
20260505193849 57 310 0.9 5.2 0.00 0.00 0.00 46
20260505193349 57 5 0.9 8.7 0.00 0.00 0.00 47
20260505192849 57 267 0.0 7.0 0.00 0.00 0.00 46
20260505192349 57 250 4.3 7.8 0.00 0.00 0.00 46
20260505191849 57 5 5.2 10.4 0.00 0.00 0.00 45
20260505191349 58 143 7.0 9.6 0.00 0.00 0.00 44
20260505190849 58 344 2.6 10.4 0.00 0.00 0.00 42
20260505190349 59 253 0.0 8.7 0.00 0.00 0.00 41
20260505185849 59 234 0.0 6.1 0.00 0.00 0.00 41
20260505185349 60 341 0.9 7.0 0.00 0.00 0.00 41
20260505184849 60 322 4.3 7.0 0.00 0.00 0.00 39
20260505184349 61 52 0.9 6.1 0.00 0.00 0.00 38
20260505183849 60 80 0.0 7.0 0.00 0.00 0.00 40
20260505183349 60 340 1.7 7.8 0.00 0.00 0.00 40
20260505182849 60 310 7.0 7.8 0.00 0.00 0.00 39
20260505182349 61 267 4.3 8.7 0.00 0.00 0.00 40
20260505181849 61 307 3.5 8.7 0.00 0.00 0.00 38
20260505181349 61 288 2.6 12.2 0.00 0.00 0.00 39
20260505180849 61 288 5.2 10.4 0.00 0.00 0.00 38
20260505180349 61 196 0.9 7.8 0.00 0.00 0.00 39
20260505175850 60 344 0.0 8.7 0.00 0.00 0.00 41
20260505175350 59 292 2.6 8.7 0.00 0.00 0.00 41
20260505174850 59 198 0.9 6.1 0.00 0.00 0.00 40
20260505174350 59 189 0.0 6.1 0.00 0.00 0.00 41
20260505173850 58 229 0.9 9.6 0.00 0.00 0.00 41
20260505173350 59 299 0.9 6.1 0.00 0.00 0.00 40
20260505172850 59 63 0.0 6.1 0.00 0.00 0.00 40
20260505172350 59 180 3.5 8.7 0.00 0.00 0.00 40
20260505171850 59 267 6.1 7.8 0.00 0.00 0.00 41
20260505171350 59 16 2.6 8.7 0.00 0.00 0.00 39
20260505170850 59 63 0.9 7.8 0.00 0.00 0.00 41
20260505170350 58 322 0.0 9.6 0.00 0.00 0.00 40
20260505165850 58 243 0.0 4.3 0.00 0.00 0.00 41
20260505165350 57 77 2.6 7.8 0.00 0.00 0.00 42
20260505164850 56 196 0.9 9.6 0.00 0.00 0.00 43
20260505164350 56 350 3.5 5.2 0.00 0.00 0.00 43
20260505163850 56 272 3.5 7.8 0.00 0.00 0.00 42
20260505163350 56 338 7.0 7.0 0.00 0.00 0.00 42
20260505162850 56 292 0.9 7.0 0.00 0.00 0.00 42
20260505162350 56 288 1.7 4.3 0.00 0.00 0.00 42
20260505161850 56 132 3.5 6.1 0.00 0.00 0.00 41
20260505161350 56 258 1.7 7.0 0.00 0.00 0.00 41
20260505160850 56 258 1.7 5.2 0.00 0.00 0.00 41
20260505160350 56 268 1.7 9.6 0.00 0.00 0.00 41
20260505153350 56 260 0.9 2.6 0.00 0.00 0.00 40
20260505152850 56 35 0.0 4.3 0.00 0.00 0.00 41
20260505152350 55 16 0.0 3.5 0.00 0.00 0.00 41
20260505151850 55 323 0.0 4.3 0.00 0.00 0.00 40
20260505151350 55 250 0.0 5.2 0.00 0.00 0.00 40
20260505150850 55 8 0.0 6.1 0.00 0.00 0.00 39
20260505150350 55 300 1.7 6.1 0.00 0.00 0.00 39
20260505140350 46 330 0.0 0.0 0.00 0.00 0.00 60
20260505124850 43 282 0.0 0.0 0.00 0.00 0.00 64
20260505124350 43 282 0.0 2.6 0.00 0.00 0.00 63
20260505123850 43 57 0.0 0.0 0.00 0.00 0.00 62
20260505123350 43 57 0.0 0.0 0.00 0.00 0.00 63
20260505122850 43 57 0.0 0.0 0.00 0.00 0.00 63
20260505122350 43 57 0.0 0.0 0.00 0.00 0.00 64
20260505121940 44 57 0.0 0.0 0.00 0.00 0.00 63
20260505121850 44 57 0.0 0.0 0.00 0.00 0.00 63
20260505121350 44 57 0.0 0.0 0.00 0.00 0.00 63
20260505120850 44 57 0.0 0.0 0.00 0.00 0.00 62
20260505120350 44 57 0.0 0.0 0.00 0.00 0.00 63
20260505115850 44 57 0.0 0.0 0.00 0.00 0.00 60
20260505115350 44 57 0.0 0.0 0.00 0.00 0.00 61
20260505115010 44 57 0.0 0.0 0.00 0.00 0.00 60
20260505114850 44 57 0.0 0.0 0.00 0.00 0.00 60
20260505114350 44 57 0.0 0.0 0.00 0.00 0.00 61
20260505113850 45 57 0.0 0.0 0.00 0.00 0.00 62
20260505113350 45 57 0.0 0.0 0.00 0.00 0.00 61
20260505112850 45 57 0.0 0.0 0.00 0.00 0.00 60
20260505112350 46 57 0.0 0.0 0.00 0.00 0.00 59
20260505111850 46 57 0.0 0.0 0.00 0.00 0.00 59
20260505111350 46 57 0.0 0.0 0.00 0.00 0.00 58
20260505110850 47 57 0.0 0.0 0.00 0.00 0.00 56
20260505110350 47 57 0.0 0.0 0.00 0.00 0.00 56
20260505101850 51 57 0.0 0.0 0.00 0.00 0.00 45
20260505101350 52 57 0.0 0.0 0.00 0.00 0.00 42
20260505101013 52 57 0.0 0.0 0.00 0.00 0.00 43
20260505100933 52 57 0.0 0.0 0.00 0.00 0.00 43
20260505100850 52 57 0.0 0.0 0.00 0.00 0.00 43
20260505100350 52 57 0.0 2.6 0.00 0.00 0.00 42
20260505100029 52 295 0.0 4.3 0.00 0.00 0.00 42
20260505095850 52 295 0.0 4.3 0.00 0.00 0.00 42
20260505095351 52 244 2.6 7.0 0.00 0.00 0.00 41
20260505095001 53 354 0.0 0.0 0.00 0.00 0.00 40
20260505094850 53 354 0.0 0.0 0.00 0.00 0.00 40
20260505094353 54 354 0.0 1.7 0.00 0.00 0.00 40
20260505093850 55 81 0.0 0.0 0.00 0.00 0.00 37
20260505093350 55 81 0.0 7.0 0.00 0.00 0.00 35
20260505092850 55 274 0.9 7.0 0.00 0.00 0.00 35
20260505092350 55 227 6.1 8.7 0.00 0.00 0.00 34
20260505091850 56 78 0.0 4.3 0.00 0.00 0.00 35
20260505091350 56 175 1.7 5.2 0.00 0.00 0.00 35
20260505090850 56 254 0.0 3.5 0.00 0.00 0.00 35
20260505090431 56 319 0.0 2.6 0.00 0.00 0.00 35
20260505090350 56 319 0.0 2.6 0.00 0.00 0.00 35
20260505085850 56 210 0.0 4.3 0.00 0.00 0.00 35
20260505085456 56 227 0.9 11.3 0.00 0.00 0.00 34
20260505085350 56 227 0.9 11.3 0.00 0.00 0.00 34
20260505084850 56 133 0.0 9.6 0.00 0.00 0.00 34
20260505084350 57 288 0.0 5.2 0.00 0.00 0.00 33
20260505083850 57 188 0.9 9.6 0.00 0.00 0.00 34
20260505083350 57 264 5.2 5.2 0.00 0.00 0.00 33
20260505083038 57 85 2.6 7.0 0.00 0.00 0.00 33
20260505082850 57 85 2.6 7.0 0.00 0.00 0.00 33
20260505082350 57 244 1.7 4.3 0.00 0.00 0.00 33
20260505081850 57 289 0.9 9.6 0.00 0.00 0.00 33
20260505081350 57 265 0.0 2.6 0.00 0.00 0.00 34
20260505080851 57 310 2.6 8.7 0.00 0.00 0.00 33
20260505080350 57 250 0.0 4.3 0.00 0.00 0.00 34
20260505075851 57 105 0.0 5.2 0.00 0.00 0.00 34
20260505075351 57 251 0.9 7.8 0.00 0.00 0.00 34
20260505074850 57 302 1.7 8.7 0.00 0.00 0.00 34
20260505074351 57 143 0.0 5.2 0.00 0.00 0.00 35
20260505073851 57 105 0.0 8.7 0.00 0.00 0.00 35
20260505073351 56 142 1.7 6.1 0.00 0.00 0.00 36
20260505072851 56 130 0.0 0.0 0.00 0.00 0.00 38
20260505072351 57 130 0.0 1.7 0.00 0.00 0.00 35
20260505071851 57 147 1.7 7.0 0.00 0.00 0.00 35
20260505071351 57 286 0.0 4.3 0.00 0.00 0.00 37
20260505070851 57 42 0.0 5.2 0.00 0.00 0.00 37
20260505070351 58 4 0.0 5.2 0.00 0.00 0.00 35
20260505065851 58 208 4.3 8.7 0.00 0.00 0.00 34
20260505065351 58 358 8.7 8.7 0.00 0.00 0.00 34
20260505064851 58 358 1.7 7.0 0.00 0.00 0.00 34
20260505064351 58 275 0.0 7.0 0.00 0.00 0.00 34
20260505063851 58 230 2.6 7.8 0.00 0.00 0.00 34
20260505063351 58 172 0.0 8.7 0.00 0.00 0.00 34
20260505062851 58 220 5.2 12.2 0.00 0.00 0.00 34
20260505062351 58 248 4.3 7.8 0.00 0.00 0.00 34
20260505061851 58 268 4.3 10.4 0.00 0.00 0.00 33
20260505061351 58 358 3.5 7.8 0.00 0.00 0.00 34
20260505060851 58 9 1.7 9.6 0.00 0.00 0.00 34
20260505060351 58 233 0.0 8.7 0.00 0.00 0.00 34
20260505055851 58 203 2.6 12.2 0.00 0.00 0.00 34
20260505055351 58 223 4.3 8.7 0.00 0.00 0.00 34
20260505054851 59 309 0.0 6.1 0.00 0.00 0.00 34
20260505054351 59 330 0.0 10.4 0.00 0.00 0.00 34
20260505053851 58 295 2.6 8.7 0.00 0.00 0.00 34
20260505053351 58 233 5.2 10.4 0.00 0.00 0.00 34
20260505052922 59 248 5.2 9.6 0.00 0.00 0.00 34
20260505052851 59 248 5.2 9.6 0.00 0.00 0.00 34
20260505052351 59 68 2.6 8.7 0.00 0.00 0.00 33
20260505051851 59 295 1.7 13.0 0.00 0.00 0.00 33
20260505051351 59 205 2.6 13.0 0.00 0.00 0.00 33
20260505050944 59 247 4.3 12.2 0.00 0.00 0.00 33
20260505050851 59 247 4.3 12.2 0.00 0.00 0.00 33
20260505050351 59 299 0.0 8.7 0.00 0.00 0.00 33
20260505041351 59 315 7.0 11.3 0.00 0.00 0.00 29
20260505040851 59 240 7.8 15.6 0.00 0.00 0.00 28
20260505040351 60 279 0.0 13.0 0.00 0.00 0.00 28
20260505035851 60 240 4.3 13.9 0.00 0.00 0.00 27
20260505035826 62 302 1.7 6.1 0.00 0.00 0.00 22
20260505035817 62 331 0.0 12.2 0.00 0.00 0.00 22
20260505035807 62 246 0.0 5.2 0.00 0.00 0.00 22
20260505035351 60 240 2.6 9.6 0.00 0.00 0.00 27
20260505034851 60 268 6.1 14.8 0.00 0.00 0.00 27
20260505034351 60 202 0.0 9.6 0.00 0.00 0.00 27
20260505033851 60 213 5.2 13.0 0.00 0.00 0.00 26
20260505033351 60 246 1.7 8.7 0.00 0.00 0.00 25
20260505032851 60 247 0.9 10.4 0.00 0.00 0.00 25
20260505032351 61 264 0.9 11.3 0.00 0.00 0.00 25
20260505031851 61 250 2.6 14.8 0.00 0.00 0.00 25
20260505031351 61 331 4.3 8.7 0.00 0.00 0.00 24
20260505030851 61 171 2.6 6.1 0.00 0.00 0.00 24
20260505030351 61 7 0.9 7.8 0.00 0.00 0.00 24
20260505025851 61 281 3.5 7.0 0.00 0.00 0.00 23
20260505025351 61 247 4.3 12.2 0.00 0.00 0.00 23
20260505024851 61 312 1.7 9.6 0.00 0.00 0.00 23
20260505024351 61 244 5.2 6.1 0.00 0.00 0.00 24
20260505023851 61 227 4.3 12.2 0.00 0.00 0.00 22
20260505023351 61 296 3.5 7.0 0.00 0.00 0.00 22
20260505022851 62 344 0.0 13.9 0.00 0.00 0.00 23
20260505022351 62 313 2.6 7.0 0.00 0.00 0.00 22
20260505021851 62 302 1.7 6.1 0.00 0.00 0.00 22
20260505021351 62 331 0.0 12.2 0.00 0.00 0.00 22
20260505020851 62 246 0.0 5.2 0.00 0.00 0.00 22
20260505020614 62 319 0.0 4.3 0.00 0.00 0.00 21
20260505020351 62 226 2.6 6.1 0.00 0.00 0.00 21
20260505015851 62 284 0.0 8.7 0.00 0.00 0.00 21
20260505015351 62 319 0.0 4.3 0.00 0.00 0.00 21
20260505014851 62 315 2.6 6.1 0.00 0.00 0.00 21
20260505014351 63 251 2.6 11.3 0.00 0.00 0.00 21
20260505013851 63 329 3.5 19.1 0.00 0.00 0.00 20
20260505013351 63 257 0.0 13.0 0.00 0.00 0.00 20
20260505012851 63 206 6.1 9.6 0.00 0.00 0.00 21
20260505012351 63 288 1.7 12.2 0.00 0.00 0.00 21
20260505011851 63 317 6.1 9.6 0.00 0.00 0.00 20
20260505011351 63 315 0.0 7.8 0.00 0.00 0.00 21
20260505010851 63 309 0.0 9.6 0.00 0.00 0.00 22
20260505010351 63 255 1.7 6.1 0.00 0.00 0.00 21
20260505005851 63 310 2.6 7.0 0.00 0.00 0.00 21
20260505005351 63 18 0.0 5.2 0.00 0.00 0.00 22
20260505004851 63 258 0.0 10.4 0.00 0.00 0.00 21
20260505004351 64 347 3.5 7.8 0.00 0.00 0.00 21
20260505003851 63 251 1.7 10.4 0.00 0.00 0.00 21
20260505003351 64 234 3.5 5.2 0.00 0.00 0.00 22
20260505002852 64 226 2.6 7.0 0.00 0.00 0.00 21
20260505002351 64 272 2.6 13.0 0.00 0.00 0.00 22
20260505001852 64 229 5.2 7.8 0.00 0.00 0.00 22
20260505001351 64 260 3.5 8.7 0.00 0.00 0.00 22
20260505000851 64 289 5.2 12.2 0.00 0.00 0.00 22
20260505000351 64 310 2.6 9.6 0.00 0.00 0.00 22
20260504235851 64 233 3.5 10.4 0.00 0.00 0.00 22
20260504235351 64 7 2.6 7.8 0.00 0.00 0.00 21
20260504234851 64 236 1.7 9.6 0.00 0.00 0.00 21
20260504234351 65 267 0.0 7.8 0.00 0.00 0.00 21
20260504233851 64 291 3.5 10.4 0.00 0.00 0.00 21
20260504233351 64 222 5.2 13.0 0.00 0.00 0.00 20
20260504232851 64 282 1.7 11.3 0.00 0.00 0.00 21
20260504232351 65 223 7.8 11.3 0.00 0.00 0.00 20
20260504231851 64 289 4.3 15.6 0.00 0.00 0.00 20
20260504231351 64 358 4.3 11.3 0.00 0.00 0.00 19